sat.trackr.live / text

‹ back to catalog

STARLINK-35031

NORAD 65404 · 2025-192A

PAYLOAD ACTIVE UNKNOWN

§ Identity

Operator
Country
US
Launch date
2025-08-31
Launch site
AFETR
Launch vehicle
Mass (kg)
RCS (m²)

Purposes: comms

External: N2YO · Heavens-Above · Gunter

§ Orbital elements

Epoch: 2026-09-20T16:50:49.494336Z

Period
93.85 min
Inclination
53.1579°
Eccentricity
0.0000717
Mean motion
15.34401827 rev/d
Perigee alt
462.2 km
Apogee alt
463.2 km
Semi-major
6,840.8 km
B*
2.6484e-4
RAAN
52.7977°
Arg perigee
93.0946°
Mean anomaly
267.0138°
Rev number
5,915

§ Raw data

STARLINK-350311 65404U 25192A   26263.70196174  .00008583  00000+0  26484-3 0  99922 65404  53.1579  52.7977 0000717  93.0946 267.0138 15.34401827 59156

JSON: /api/v1/satellites/65404 · /tle

For live sub-satellite position, see the globe view (requires WebGL).

§ Visibility from observer

Set your observer location to see the next 7 days of passes ≥ 10°. The values pass through the URL so the page stays shareable.

No JS? Fill the form by hand. The geolocation button needs JavaScript.